Estación de San José
Ultimos registro cada 15 minutos 29
| N° | Estación | Fecha / Hora | Temperatura | Humedad | Lluvia | Velocidad | Dirección | Radiación | Presion |
| 29 | San José | 06-05-2026 07:15 | 11,5 | 92 | 0,4 | 0 | 347 | 0 | 1015,4 |
| 28 | San José | 06-05-2026 07:00 | 10,9 | 94 | 0 | 0 | 332 | 0 | 1015,1 |
| 27 | San José | 06-05-2026 06:45 | 10,3 | 94 | 0 | 0 | 8 | 0 | 1015 |
| 26 | San José | 06-05-2026 06:30 | 9,8 | 94 | 0 | 0 | 6 | 0 | 1015,3 |
| 25 | San José | 06-05-2026 06:15 | 9,3 | 93 | 0 | 0 | 7 | 0 | 1014,9 |
| 24 | San José | 06-05-2026 06:00 | 9 | 93 | 0 | 0 | 7 | 0 | 1015,1 |
| 23 | San José | 06-05-2026 05:45 | 8,8 | 93 | 0 | 0 | 7 | 0 | 1015 |
| 22 | San José | 06-05-2026 05:30 | 8,8 | 92 | 0 | 0 | 7 | 0 | 1015,1 |
| 21 | San José | 06-05-2026 05:15 | 9,1 | 91 | 0 | 0 | 4 | 0 | 1015 |
| 20 | San José | 06-05-2026 05:00 | 9,7 | 92 | 0 | 0 | 4 | 0 | 1015,1 |
| 19 | San José | 06-05-2026 04:45 | 10,1 | 93 | 0 | 0 | 4 | 0 | 1015,2 |
| 18 | San José | 06-05-2026 04:30 | 9,9 | 93 | 0 | 0 | 4 | 0 | 1015,1 |
| 17 | San José | 06-05-2026 04:15 | 9,6 | 93 | 0 | 0 | 4 | 0 | 1015 |
| 16 | San José | 06-05-2026 04:00 | 9,2 | 92 | 0 | 0 | 4 | 0 | 1015,3 |
| 15 | San José | 06-05-2026 03:45 | 9,4 | 92 | 0 | 0 | 4 | 0 | 1015,5 |
| 14 | San José | 06-05-2026 03:30 | 9,7 | 92 | 0 | 0 | 4 | 0 | 1015,6 |
| 13 | San José | 06-05-2026 03:15 | 10,3 | 92 | 0 | 0 | 4 | 0 | 1015,6 |
| 12 | San José | 06-05-2026 03:00 | 10,7 | 93 | 0 | 0 | 4 | 0 | 1015,7 |
| 11 | San José | 06-05-2026 02:45 | 10,8 | 92 | 0 | 0 | 3 | 0 | 1015,7 |
| 10 | San José | 06-05-2026 02:15 | 11,2 | 92 | 0 | 0 | 3 | 0 | 1015,8 |
| 9 | San José | 06-05-2026 02:00 | 11,4 | 92 | 0 | 0 | 3 | 0 | 1016 |
| 8 | San José | 06-05-2026 01:45 | 11,6 | 92 | 0 | 0 | 3 | 0 | 1016,1 |
| 7 | San José | 06-05-2026 01:30 | 11,8 | 91 | 0 | 0 | 341 | 0 | 1016 |
| 6 | San José | 06-05-2026 01:15 | 11,9 | 91 | 0 | 0 | 349 | 0 | 1015,8 |
| 5 | San José | 06-05-2026 01:00 | 12,2 | 91 | 0 | 0 | 316 | 0 | 1015,7 |
| 4 | San José | 06-05-2026 00:45 | 12,4 | 90 | 0 | 0 | 323 | 0 | 1015,6 |
| 3 | San José | 06-05-2026 00:30 | 12,7 | 89 | 0 | 0 | 18 | 0 | 1015,6 |
| 2 | San José | 06-05-2026 00:15 | 12,8 | 89 | 0 | 0 | 20 | 0 | 1015,8 |
| 1 | San José | 06-05-2026 00:00 | 12,9 | 89 | 0 | 0 | 347 | 0 | 1016 |